Home   Weather   Durango   Past weeks

Flag for USA Past Weather in Durango, Colorado, USA — Yesterday and Last 2 Weeks

Now
17 °F

Passing clouds.


Feels Like: 17 °F
Forecast: 17 / 40 °F
Wind: No wind

Location: Durango-La Plata County Airport

Current Time: Dec 5, 2016 at 7:48:53 am

Latest Report: Dec 5, 2016 at 6:53 am


Visibility: 10 mi

Pressure: 30.05 "Hg (23.25 "Hg at 1989m altitude)

Humidity: 88%

Dew Point: 14 °F

Location of DurangoLocation

Past Weather in Durango — Graph

°F

Durango Temperature Yesterday

Maximum temperature yesterday: 39 °F (at 1:53 pm)
Minimum temperature yesterday: 16 °F (at 4:03 am)
Average temperature yesterday: 25 °F

High & Low Weather Summary for the Past Weeks

 TemperatureHumidityPressure
High57 °F (Nov 20, 12:53 pm)97% (Nov 21, 4:53 am)30.62 "Hg (Nov 21, 4:53 am)
Low10 °F (Nov 30, 6:53 am)21% (Nov 20, 12:53 pm)29.52 "Hg (Nov 28, 2:00 pm)
Average31 °F71%30.10 "Hg
* Reported Nov 20 5:53 am — Dec 5 5:53 am, Durango, Weather by CustomWeather, © 2016

Note: Actual official high and low records may vary slightly from our data, if they occured in-between our weather recording intervals... More about our weather records

Advertising

Durango Weather History for the Previous 24 Hours

Scroll right to see more
 ConditionsComfort  
Time TempWeatherWind HumidityBarometerVisibility
5:53 am
Mon, Dec 5
19 °FPassing clouds.No wind81%30.01 "Hg10 mi
4:53 am18 °FPassing clouds.3 mph84%30.03 "Hg10 mi
3:53 am20 °FClear.7 mph82%30.02 "Hg10 mi
2:53 am17 °FClear.5 mph83%30.05 "Hg10 mi
1:53 am18 °FClear.No wind84%30.07 "Hg10 mi
12:53 am20 °FClear.3 mph85%30.08 "Hg10 mi
11:53 pm
Sun, Dec 4
21 °FClear.5 mph81%30.12 "Hg10 mi
10:53 pm20 °FClear.No wind85%30.17 "Hg10 mi
9:53 pm22 °FClear.3 mph82%30.19 "Hg10 mi
8:53 pm23 °FClear.3 mph81%30.22 "Hg10 mi
7:53 pm26 °FClear.3 mph74%30.22 "Hg10 mi
6:53 pm25 °FClear.3 mph78%30.23 "Hg10 mi
5:53 pm32 °FClear.No wind59%30.21 "Hg10 mi
4:53 pm34 °FClear.8 mph56%30.20 "Hg10 mi
3:53 pm38 °FSunny.8 mph51%30.17 "Hg10 mi
2:53 pm39 °FSunny.10 mph46%30.17 "Hg10 mi
1:53 pm39 °FSunny.3 mph48%30.17 "Hg10 mi
12:53 pm37 °FSunny.No wind54%30.20 "Hg10 mi
11:53 am34 °FSunny.No wind61%30.25 "Hg10 mi
10:53 am31 °FSunny.No wind69%30.29 "Hg10 mi
9:53 am25 °FSunny.No wind85%30.33 "Hg10 mi
9:03 am21 °FIce fog.3 mph92%30.19 "Hg2 mi
8:53 am20 °FIce fog.3 mph92%30.34 "Hg1 mi
8:04 am20 °FIce fog.No wind89%30.18 "Hg4 mi
7:53 am19 °FLow clouds.No wind85%30.34 "Hg10 mi
Weather by CustomWeather, © 2016

See weather overviewHow to use our weather pages